| time (UTC) | temp F | wind direction | speed knots | gust knots | rain 1hr in | rain 24hr in | rain mn in | humidity % | barometer mb |
| 20260503045901 | 49 | 35 | 1.7 | 6.1 | 0.00 | 0.00 | 0.00 | 95 | 1010.5 |
| 20260503045402 | 49 | 33 | 1.7 | 6.1 | 0.00 | 0.00 | 0.00 | 95 | 1010.5 |
| 20260503044901 | 49 | 38 | 1.7 | 6.1 | 0.00 | 0.00 | 0.00 | 95 | 1010.5 |
| 20260503043902 | 50 | 58 | 0.9 | 2.6 | 0.00 | 0.00 | 0.00 | 95 | 1010.8 |
| 20260503043402 | 50 | 58 | 0.9 | 2.6 | 0.00 | 0.00 | 0.00 | 95 | 1010.8 |
| 20260503042902 | 50 | 58 | 0.9 | 2.6 | 0.00 | 0.00 | 0.00 | 95 | 1010.8 |
| 20260503042402 | 50 | 58 | 0.9 | 2.6 | 0.00 | 0.00 | 0.00 | 95 | 1010.8 |
| 20260503040901 | 50 | 58 | 0.9 | 2.6 | 0.00 | 0.00 | 0.00 | 95 | 1010.8 |
| 20260503040402 | 50 | 58 | 0.9 | 2.6 | 0.00 | 0.00 | 0.00 | 95 | 1010.8 |
| 20260503035902 | 50 | 58 | 0.9 | 2.6 | 0.00 | 0.00 | 0.00 | 95 | 1010.8 |
| 20260503035401 | 50 | 58 | 0.9 | 2.6 | 0.00 | 0.00 | 0.00 | 95 | 1010.8 |
| 20260503034902 | 50 | 58 | 0.9 | 2.6 | 0.00 | 0.00 | 0.00 | 95 | 1010.8 |
| 20260503034402 | 50 | 58 | 0.9 | 2.6 | 0.00 | 0.00 | 0.00 | 95 | 1010.8 |
| 20260503033901 | 50 | 57 | 0.9 | 2.6 | 0.00 | 0.00 | 0.00 | 95 | 1010.8 |
| 20260503033402 | 50 | 59 | 0.9 | 2.6 | 0.00 | 0.00 | 0.00 | 95 | 1010.8 |
| 20260503032902 | 50 | 55 | 0.9 | 2.6 | 0.00 | 0.00 | 0.00 | 95 | 1010.8 |
| 20260503032402 | 50 | 62 | 0.9 | 2.6 | 0.00 | 0.00 | 0.00 | 95 | 1010.8 |
| 20260503031402 | 50 | 62 | 0.9 | 2.6 | 0.00 | 0.00 | 0.00 | 95 | 1010.8 |
| 20260503030901 | 50 | 62 | 0.9 | 2.6 | 0.00 | 0.00 | 0.00 | 95 | 1010.8 |
| 20260503030401 | 50 | 62 | 0.9 | 2.6 | 0.00 | 0.00 | 0.00 | 95 | 1010.8 |
| 20260503025902 | 50 | 62 | 0.9 | 2.6 | 0.00 | 0.00 | 0.00 | 95 | 1010.8 |
| 20260503025402 | 50 | 62 | 0.9 | 2.6 | 0.00 | 0.00 | 0.00 | 95 | 1010.8 |
| 20260503024902 | 50 | 62 | 0.9 | 2.6 | 0.00 | 0.00 | 0.00 | 95 | 1010.8 |
| 20260503024401 | 50 | 62 | 0.9 | 2.6 | 0.00 | 0.00 | 0.00 | 95 | 1010.8 |
| 20260503023901 | 50 | 62 | 0.9 | 2.6 | 0.00 | 0.00 | 0.00 | 95 | 1010.8 |
| 20260503023402 | 50 | 63 | 0.9 | 2.6 | 0.00 | 0.00 | 0.00 | 95 | 1010.8 |
| 20260503022902 | 50 | 61 | 0.9 | 2.6 | 0.00 | 0.00 | 0.00 | 95 | 1010.8 |
| 20260503022401 | 50 | 65 | 0.9 | 2.6 | 0.00 | 0.00 | 0.00 | 95 | 1010.8 |
| 20260503021901 | 50 | 58 | 0.9 | 2.6 | 0.00 | 0.00 | 0.00 | 95 | 1010.8 |
| 20260503021402 | 50 | 71 | 0.9 | 2.6 | 0.00 | 0.00 | 0.00 | 95 | 1010.8 |
| 20260503015902 | 50 | 44 | 0.9 | 2.6 | 0.00 | 0.00 | 0.00 | 94 | 1011.2 |
| 20260503014902 | 50 | 44 | 0.9 | 2.6 | 0.00 | 0.00 | 0.00 | 94 | 1011.2 |
| 20260503014402 | 50 | 44 | 0.9 | 2.6 | 0.00 | 0.00 | 0.00 | 94 | 1011.2 |
| 20260503013402 | 50 | 44 | 0.9 | 2.6 | 0.00 | 0.00 | 0.00 | 94 | 1011.2 |
| 20260503012902 | 50 | 44 | 0.9 | 2.6 | 0.00 | 0.00 | 0.00 | 94 | 1011.2 |
| 20260503012402 | 50 | 44 | 0.9 | 2.6 | 0.00 | 0.00 | 0.00 | 94 | 1011.2 |
| 20260503011402 | 50 | 45 | 0.9 | 2.6 | 0.00 | 0.00 | 0.00 | 94 | 1011.2 |
| 20260503010902 | 50 | 43 | 0.9 | 2.6 | 0.00 | 0.00 | 0.00 | 94 | 1011.2 |
| 20260503005902 | 50 | 40 | 0.9 | 2.6 | 0.00 | 0.00 | 0.00 | 94 | 1011.2 |
| 20260503005402 | 50 | 51 | 0.9 | 2.6 | 0.00 | 0.00 | 0.00 | 94 | 1011.5 |
| 20260503004902 | 50 | 51 | 0.9 | 2.6 | 0.00 | 0.00 | 0.00 | 94 | 1011.5 |
| 20260503004402 | 50 | 45 | 0.9 | 1.7 | 0.00 | 0.00 | 0.00 | 94 | 1011.5 |
| 20260503003902 | 50 | 57 | 0.9 | 4.3 | 0.00 | 0.00 | 0.00 | 94 | 1011.5 |
| 20260503003402 | 51 | 43 | 0.9 | 8.7 | 0.00 | 0.00 | 0.00 | 94 | 1011.5 |
| 20260503002902 | 51 | 29 | 0.9 | 8.7 | 0.00 | 0.00 | 0.00 | 94 | 1011.5 |
| 20260503002402 | 51 | 29 | 0.9 | 8.7 | 0.00 | 0.00 | 0.00 | 94 | 1011.5 |
| 20260503001902 | 51 | 29 | 0.9 | 8.7 | 0.00 | 0.00 | 0.00 | 94 | 1011.5 |
| 20260503001402 | 51 | 29 | 0.9 | 8.7 | 0.00 | 0.00 | 0.00 | 94 | 1011.5 |
| 20260503000902 | 51 | 29 | 0.9 | 8.7 | 0.00 | 0.00 | 0.00 | 94 | 1011.5 |
| 20260503000402 | 51 | 29 | 0.9 | 8.7 | 0.00 | 0.00 | 0.00 | 94 | 1011.5 |
| 20260502235902 | 51 | 29 | 0.9 | 8.7 | 0.00 | 0.00 | 0.00 | 94 | 1011.5 |
| 20260502235402 | 51 | 29 | 0.9 | 8.7 | 0.00 | 0.00 | 0.00 | 94 | 1011.5 |
| 20260502234902 | 51 | 29 | 0.9 | 8.7 | 0.00 | 0.00 | 0.00 | 94 | 1011.5 |
| 20260502234402 | 51 | 29 | 0.9 | 8.7 | 0.00 | 0.00 | 0.00 | 94 | 1011.5 |
| 20260502233403 | 51 | 29 | 0.9 | 8.7 | 0.00 | 0.00 | 0.00 | 94 | 1011.5 |
| 20260502232402 | 51 | 29 | 0.9 | 8.7 | 0.00 | 0.00 | 0.00 | 94 | 1011.5 |
| 20260502231902 | 51 | 29 | 0.9 | 8.7 | 0.00 | 0.00 | 0.00 | 94 | 1011.5 |
| 20260502231402 | 51 | 29 | 0.9 | 8.7 | 0.00 | 0.00 | 0.00 | 94 | 1011.5 |
| 20260502230902 | 51 | 29 | 0.9 | 8.7 | 0.00 | 0.00 | 0.00 | 94 | 1011.5 |
| 20260502230402 | 51 | 29 | 0.9 | 8.7 | 0.00 | 0.00 | 0.00 | 94 | 1011.5 |
| 20260502225902 | 51 | 27 | 0.9 | 8.7 | 0.00 | 0.00 | 0.00 | 94 | 1011.5 |
| 20260502225402 | 51 | 34 | 0.9 | 8.7 | 0.00 | 0.00 | 0.00 | 94 | 1011.5 |
| 20260502224902 | 51 | 17 | 0.9 | 8.7 | 0.00 | 0.00 | 0.00 | 94 | 1011.5 |
| 20260502224402 | 51 | 46 | 0.0 | 8.7 | 0.00 | 0.00 | 0.00 | 94 | 1011.5 |
| 20260502223902 | 51 | 26 | 0.0 | 8.7 | 0.00 | 0.00 | 0.00 | 94 | 1011.5 |
| 20260502223402 | 51 | 61 | 0.9 | 8.7 | 0.00 | 0.00 | 0.00 | 95 | 1011.5 |
| 20260502222402 | 51 | 25 | 0.9 | 8.7 | 0.00 | 0.00 | 0.00 | 95 | 1011.5 |
| 20260502221902 | 51 | 103 | 0.9 | 8.7 | 0.00 | 0.00 | 0.00 | 95 | 1011.9 |
| 20260502221402 | 51 | 105 | 0.9 | 8.7 | 0.00 | 0.00 | 0.00 | 95 | 1011.9 |
| 20260502220402 | 51 | 102 | 0.9 | 8.7 | 0.00 | 0.00 | 0.00 | 95 | 1011.9 |
| 20260502215902 | 51 | 103 | 0.9 | 8.7 | 0.00 | 0.00 | 0.00 | 95 | 1011.9 |
| 20260502215402 | 51 | 111 | 0.9 | 8.7 | 0.00 | 0.00 | 0.00 | 95 | 1011.9 |
| 20260502214902 | 51 | 82 | 1.7 | 8.7 | 0.00 | 0.00 | 0.00 | 95 | 1011.9 |
| 20260502214402 | 53 | 114 | 4.3 | 8.7 | 0.00 | 0.00 | 0.00 | 90 | 1011.9 |
| 20260502213403 | 53 | 114 | 4.3 | 8.7 | 0.00 | 0.00 | 0.00 | 90 | 1011.9 |
| 20260502212402 | 53 | 114 | 4.3 | 8.7 | 0.00 | 0.00 | 0.00 | 90 | 1011.9 |
| 20260502211402 | 53 | 114 | 4.3 | 8.7 | 0.00 | 0.00 | 0.00 | 90 | 1011.9 |
| 20260502210903 | 53 | 114 | 4.3 | 8.7 | 0.00 | 0.00 | 0.00 | 90 | 1011.9 |
| 20260502210403 | 53 | 114 | 4.3 | 8.7 | 0.00 | 0.00 | 0.00 | 90 | 1011.9 |
| 20260502205902 | 53 | 114 | 4.3 | 8.7 | 0.00 | 0.00 | 0.00 | 90 | 1011.9 |
| 20260502205403 | 53 | 114 | 4.3 | 8.7 | 0.00 | 0.00 | 0.00 | 90 | 1011.9 |
| 20260502204902 | 53 | 114 | 4.3 | 8.7 | 0.00 | 0.00 | 0.00 | 90 | 1011.9 |
| 20260502204403 | 53 | 114 | 4.3 | 8.7 | 0.00 | 0.00 | 0.00 | 90 | 1011.9 |
| 20260502203903 | 53 | 114 | 4.3 | 8.7 | 0.00 | 0.00 | 0.00 | 90 | 1011.9 |
| 20260502203402 | 53 | 114 | 4.3 | 8.7 | 0.00 | 0.00 | 0.00 | 90 | 1011.9 |
| 20260502202902 | 53 | 114 | 4.3 | 8.7 | 0.00 | 0.00 | 0.00 | 90 | 1011.9 |
| 20260502201902 | 53 | 114 | 4.3 | 8.7 | 0.00 | 0.00 | 0.00 | 90 | 1011.9 |
| 20260502201403 | 53 | 114 | 4.3 | 8.7 | 0.00 | 0.00 | 0.00 | 90 | 1011.9 |
| 20260502200403 | 53 | 114 | 4.3 | 8.7 | 0.00 | 0.00 | 0.00 | 90 | 1011.9 |
| 20260502194903 | 53 | 114 | 4.3 | 8.7 | 0.00 | 0.00 | 0.00 | 90 | 1011.9 |
| 20260502193903 | 53 | 114 | 4.3 | 8.7 | 0.00 | 0.00 | 0.00 | 90 | 1011.9 |
| 20260502193403 | 53 | 114 | 4.3 | 8.7 | 0.00 | 0.00 | 0.00 | 90 | 1011.9 |
| 20260502192903 | 53 | 114 | 4.3 | 8.7 | 0.00 | 0.00 | 0.00 | 90 | 1011.9 |
| 20260502192403 | 53 | 114 | 4.3 | 8.7 | 0.00 | 0.00 | 0.00 | 90 | 1011.9 |
| 20260502191903 | 53 | 114 | 4.3 | 8.7 | 0.00 | 0.00 | 0.00 | 90 | 1011.9 |
| 20260502191403 | 53 | 114 | 4.3 | 8.7 | 0.00 | 0.00 | 0.00 | 90 | 1011.9 |
| 20260502190903 | 53 | 113 | 4.3 | 8.7 | 0.00 | 0.00 | 0.00 | 90 | 1011.9 |
| 20260502190403 | 53 | 115 | 4.3 | 8.7 | 0.00 | 0.00 | 0.00 | 90 | 1011.9 |
| 20260502185903 | 53 | 110 | 4.3 | 8.7 | 0.00 | 0.00 | 0.00 | 90 | 1011.9 |
| 20260502185403 | 53 | 119 | 4.3 | 8.7 | 0.00 | 0.00 | 0.00 | 90 | 1011.9 |
| 20260502184903 | 53 | 102 | 4.3 | 10.4 | 0.00 | 0.00 | 0.00 | 90 | 1011.9 |
| 20260502184403 | 53 | 144 | 2.6 | 10.4 | 0.00 | 0.00 | 0.00 | 88 | 1012.2 |
| 20260502183903 | 53 | 144 | 2.6 | 10.4 | 0.00 | 0.00 | 0.00 | 88 | 1012.2 |
| 20260502183403 | 53 | 144 | 2.6 | 10.4 | 0.00 | 0.00 | 0.00 | 88 | 1012.2 |
| 20260502182903 | 53 | 144 | 2.6 | 10.4 | 0.00 | 0.00 | 0.00 | 88 | 1012.2 |
| 20260502182403 | 53 | 144 | 2.6 | 10.4 | 0.00 | 0.00 | 0.00 | 88 | 1012.2 |
| 20260502181903 | 53 | 144 | 2.6 | 10.4 | 0.00 | 0.00 | 0.00 | 88 | 1012.2 |
| 20260502181403 | 53 | 144 | 2.6 | 10.4 | 0.00 | 0.00 | 0.00 | 88 | 1012.2 |
| 20260502180903 | 53 | 144 | 2.6 | 10.4 | 0.00 | 0.00 | 0.00 | 88 | 1012.2 |
| 20260502163903 | 53 | 142 | 2.6 | 10.4 | 0.00 | 0.00 | 0.00 | 88 | 1012.2 |
| 20260502163403 | 53 | 149 | 2.6 | 10.4 | 0.00 | 0.00 | 0.00 | 88 | 1012.2 |
| 20260502162903 | 53 | 134 | 2.6 | 10.4 | 0.00 | 0.00 | 0.00 | 88 | 1012.2 |
| 20260502162403 | 53 | 163 | 2.6 | 10.4 | 0.00 | 0.00 | 0.00 | 88 | 1012.2 |
| 20260502161904 | 53 | 113 | 4.3 | 10.4 | 0.00 | 0.00 | 0.00 | 89 | 1012.2 |
| 20260502160403 | 54 | 117 | 4.3 | 10.4 | 0.00 | 0.00 | 0.00 | 89 | 1012.3 |
| 20260502151904 | 54 | 101 | 4.3 | 8.7 | 0.00 | 0.00 | 0.00 | 89 | 1012.9 |
| 20260502130403 | 53 | 106 | 5.2 | 13.0 | 0.00 | 0.00 | 0.00 | 89 | 1013.9 |
| 20260502123403 | 55 | 115 | 5.2 | 11.3 | 0.00 | 0.00 | 0.00 | 85 | 1014.6 |
| 20260502122903 | 55 | 115 | 5.2 | 11.3 | 0.00 | 0.00 | 0.00 | 85 | 1014.6 |
| 20260502122403 | 55 | 115 | 5.2 | 11.3 | 0.00 | 0.00 | 0.00 | 85 | 1014.6 |
| 20260502121403 | 55 | 115 | 5.2 | 11.3 | 0.00 | 0.00 | 0.00 | 85 | 1014.6 |
| 20260502115904 | 55 | 115 | 5.2 | 11.3 | 0.00 | 0.00 | 0.00 | 85 | 1014.6 |
| 20260502115403 | 55 | 116 | 5.2 | 11.3 | 0.00 | 0.00 | 0.00 | 85 | 1014.6 |
| 20260502114903 | 55 | 114 | 5.2 | 11.3 | 0.00 | 0.00 | 0.00 | 85 | 1014.6 |
| 20260502114403 | 55 | 117 | 5.2 | 11.3 | 0.00 | 0.00 | 0.00 | 85 | 1014.6 |
| 20260502113901 | 54 | 109 | 2.6 | 10.4 | 0.00 | 0.00 | 0.00 | 87 | 1014.9 |
| 20260502112901 | 54 | 109 | 2.6 | 10.4 | 0.00 | 0.00 | 0.00 | 87 | 1014.9 |
| 20260502112401 | 54 | 109 | 2.6 | 10.4 | 0.00 | 0.00 | 0.00 | 87 | 1014.9 |
| 20260502111901 | 54 | 109 | 2.6 | 10.4 | 0.00 | 0.00 | 0.00 | 87 | 1014.9 |
| 20260502111400 | 54 | 109 | 2.6 | 10.4 | 0.00 | 0.00 | 0.00 | 87 | 1014.9 |
| 20260502110901 | 54 | 109 | 2.6 | 10.4 | 0.00 | 0.00 | 0.00 | 87 | 1014.9 |
| 20260502110401 | 54 | 109 | 2.6 | 10.4 | 0.00 | 0.00 | 0.00 | 87 | 1014.9 |
| 20260502105901 | 54 | 109 | 2.6 | 10.4 | 0.00 | 0.00 | 0.00 | 87 | 1014.9 |
| 20260502105401 | 54 | 109 | 2.6 | 10.4 | 0.00 | 0.00 | 0.00 | 87 | 1014.9 |
| 20260502104901 | 54 | 109 | 2.6 | 10.4 | 0.00 | 0.00 | 0.00 | 87 | 1014.9 |
| 20260502104401 | 54 | 109 | 2.6 | 10.4 | 0.00 | 0.00 | 0.00 | 87 | 1014.9 |
| 20260502103901 | 54 | 109 | 2.6 | 10.4 | 0.00 | 0.00 | 0.00 | 87 | 1014.9 |
| 20260502103401 | 54 | 109 | 2.6 | 10.4 | 0.00 | 0.00 | 0.00 | 87 | 1014.9 |
| 20260502102901 | 54 | 109 | 2.6 | 10.4 | 0.00 | 0.00 | 0.00 | 87 | 1014.9 |
| 20260502102401 | 54 | 109 | 2.6 | 10.4 | 0.00 | 0.00 | 0.00 | 87 | 1014.9 |
| 20260502101901 | 54 | 109 | 2.6 | 10.4 | 0.00 | 0.00 | 0.00 | 87 | 1014.9 |
| 20260502101401 | 54 | 109 | 2.6 | 10.4 | 0.00 | 0.00 | 0.00 | 87 | 1014.9 |
| 20260502100401 | 54 | 109 | 2.6 | 10.4 | 0.00 | 0.00 | 0.00 | 87 | 1014.9 |
| 20260502091401 | 54 | 109 | 2.6 | 10.4 | 0.00 | 0.00 | 0.00 | 87 | 1014.9 |
| 20260502090901 | 54 | 109 | 2.6 | 10.4 | 0.00 | 0.00 | 0.00 | 87 | 1014.9 |
| 20260502090401 | 54 | 109 | 2.6 | 10.4 | 0.00 | 0.00 | 0.00 | 87 | 1014.9 |
| 20260502070901 | 50 | 25 | 0.9 | 10.4 | 0.00 | 0.00 | 0.00 | 92 | 1015.2 |
| 20260502070401 | 50 | 25 | 0.9 | 10.4 | 0.00 | 0.00 | 0.00 | 92 | 1015.2 |
| 20260502064902 | 50 | 25 | 0.9 | 10.4 | 0.00 | 0.00 | 0.00 | 92 | 1015.2 |
| 20260502063901 | 50 | 25 | 0.9 | 10.4 | 0.00 | 0.00 | 0.00 | 92 | 1015.2 |
| 20260502063401 | 50 | 25 | 0.9 | 10.4 | 0.00 | 0.00 | 0.00 | 92 | 1015.2 |
| 20260502062901 | 50 | 25 | 0.9 | 10.4 | 0.00 | 0.00 | 0.00 | 92 | 1015.2 |
| 20260502062402 | 50 | 25 | 0.9 | 10.4 | 0.00 | 0.00 | 0.00 | 92 | 1015.2 |
| 20260502061902 | 50 | 26 | 0.9 | 10.4 | 0.00 | 0.00 | 0.00 | 92 | 1015.2 |
| 20260502061402 | 50 | 24 | 0.9 | 10.4 | 0.00 | 0.00 | 0.00 | 92 | 1015.2 |
| 20260502060901 | 50 | 29 | 0.9 | 10.4 | 0.00 | 0.00 | 0.00 | 92 | 1015.2 |
| 20260502060401 | 50 | 18 | 0.9 | 10.4 | 0.00 | 0.00 | 0.00 | 92 | 1015.2 |
| 20260502055901 | 50 | 38 | 0.9 | 10.4 | 0.00 | 0.00 | 0.00 | 92 | 1015.2 |
| 20260502055402 | 49 | 357 | 0.9 | 10.4 | 0.00 | 0.00 | 0.00 | 91 | 1015.6 |
| 20260502054901 | 49 | 357 | 0.9 | 10.4 | 0.00 | 0.00 | 0.00 | 91 | 1015.6 |
| 20260502054402 | 49 | 357 | 0.9 | 10.4 | 0.00 | 0.00 | 0.00 | 91 | 1015.6 |
| 20260502053902 | 49 | 357 | 0.9 | 10.4 | 0.00 | 0.00 | 0.00 | 91 | 1015.6 |
| 20260502053402 | 49 | 357 | 0.9 | 10.4 | 0.00 | 0.00 | 0.00 | 91 | 1015.6 |
| 20260502052402 | 49 | 357 | 0.9 | 10.4 | 0.00 | 0.00 | 0.00 | 91 | 1015.6 |
| 20260502051901 | 49 | 357 | 0.9 | 10.4 | 0.00 | 0.00 | 0.00 | 91 | 1015.6 |
| 20260502051402 | 49 | 357 | 0.9 | 10.4 | 0.00 | 0.00 | 0.00 | 91 | 1015.6 |